Flag for Norway Weather past 2 weeks in Nesodden, Norway

Now
57 °F

Passing clouds.


Feels Like: 53 °F
Forecast: 49 / 69 °F
Wind: 21 mph from South

Location: Oslo / Fornebu

Current Time: Aug 29, 2015 at 5:11:07 AM

Latest Report: Aug 29, 2015 at 4:20 AM


Visibility: N/A

Pressure: 29.80 "Hg

Humidity: 88%

Dew point: 54 °F

Location of NesoddenLocation

Historic Weather in Nesodden — Graph

°F

Nesodden temperature yesterday

Maximum temperature yesterday: 59 °F (at 2:50 PM)
Minimum temperature yesterday: 55 °F (at 12:20 AM)
Average temperature yesterday: 56 °F

Past Weeks' High & Low Weather Summary

 TemperatureHumidityPressure
High70 °F (Aug 15, 2:20 AM)100% (Aug 15, 7:20 PM)30.18 "Hg (Aug 15, 7:20 PM)
Low54 °F (Aug 15, 10:50 PM)46% (Aug 18, 7:20 PM)29.33 "Hg (Aug 26, 11:50 PM)
Average59 °F84%29.87 "Hg
* Reported Aug 14 3:20 AM — Aug 29 3:50 AM, Nesodden, Weather by CustomWeather, © 2015

Note: Actual official high and low records may vary slightly from our data, if they occured in-between our weather recording intervals... More about our weather records

Advertising

Nesodden weather history for previous 24 hours

 ConditionsComfort  
Time TempWeatherWind HumidityBarometerVisibility
3:50 AM
Sat, Aug 29
55 °FPassing clouds.18 mph94%29.80 "HgN/A
3:20 AM55 °FPassing clouds.16 mph94%29.80 "HgN/A
2:50 AM55 °FCool.14 mph94%29.80 "HgN/A
2:20 AM55 °FCool.14 mph94%29.80 "HgN/A
1:50 AM55 °FCool.15 mph94%29.80 "HgN/A
1:20 AM55 °FCool.15 mph94%29.80 "HgN/A
12:50 AM55 °FCool.16 mph94%29.80 "HgN/A
11:50 PM
Fri, Aug 28
55 °FOvercast.18 mph94%29.77 "HgN/A
10:50 PM55 °FPassing clouds.20 mph94%29.77 "HgN/A
10:20 PM55 °FPassing clouds.18 mph94%29.77 "HgN/A
9:50 PM55 °FPassing clouds.18 mph94%29.74 "HgN/A
9:20 PM55 °FPartly sunny.20 mph88%29.74 "HgN/A
8:50 PM55 °FOvercast.18 mph88%29.74 "HgN/A
8:20 PM55 °FPartly sunny.16 mph88%29.74 "HgN/A
7:50 PM57 °FCool.17 mph82%29.74 "HgN/A
7:20 PM59 °FCool.15 mph77%29.71 "HgN/A
6:50 PM59 °FCool.14 mph77%29.71 "HgN/A
6:20 PM59 °FPassing clouds.16 mph77%29.71 "HgN/A
5:50 PM59 °FCool.16 mph82%29.71 "HgN/A
5:20 PM57 °FCool.17 mph82%29.71 "HgN/A
4:50 PM57 °FCool.16 mph82%29.71 "HgN/A
4:20 PM57 °FCool.16 mph82%29.71 "HgN/A
3:50 PM57 °FCool.17 mph82%29.71 "HgN/A
3:20 PM59 °FCool.17 mph77%29.68 "HgN/A
2:50 PM59 °FCool.18 mph77%29.68 "HgN/A
2:20 PM57 °FPassing clouds.16 mph82%29.68 "HgN/A
1:50 PM57 °FScattered clouds.18 mph82%29.68 "HgN/A
1:20 PM57 °FBroken clouds.18 mph82%29.65 "HgN/A
12:50 PM57 °FBroken clouds.20 mph82%29.65 "HgN/A
12:20 PM57 °FPartly sunny.21 mph82%29.65 "HgN/A
11:50 AM55 °FPartly sunny.22 mph88%29.62 "HgN/A
11:20 AM55 °FBroken clouds.24 mph88%29.62 "HgN/A
10:50 AM55 °FBroken clouds.21 mph88%29.62 "HgN/A
10:20 AM55 °FCool.N/A88%29.59 "HgN/A
9:50 AM55 °FPartly sunny.22 mph88%29.59 "HgN/A
9:20 AM55 °FPartly sunny.24 mph94%29.59 "HgN/A
8:50 AM55 °FPartly sunny.24 mph94%29.56 "HgN/A
8:20 AM55 °FPartly sunny.24 mph88%29.56 "HgN/A
7:50 AM55 °FPartly sunny.21 mph94%29.56 "HgN/A
7:20 AM55 °FPartly sunny.22 mph94%29.53 "HgN/A
6:50 AM55 °FPassing clouds.17 mph94%29.53 "HgN/A
5:50 AM55 °FPartly cloudy.17 mph94%29.53 "HgN/A
Weather by CustomWeather, © 2015

See weather overviewHow to use our weather pages